Location: Newark
(35.9031°N, 139.7175°E)
Time: 08:00:37
(UTC+00:00)

Tiros 1 - All Passes

Search period start: 26 May 2020 00:00
Search period end: 05 June 2020 00:00
Orbit: 630 x 664 km, 48.4° (Epoch: 26 May)

Date Brightness Start Highest point End Pass type
(mag) Time Alt. Az. Time Alt. Az. Time Alt. Az.
26 May - 04:12:25 10° SW 04:17:06 64° SE 04:21:45 10° ENE daylight
26 May - 05:55:23 10° W 05:59:33 30° NNW 06:03:42 10° NE daylight
26 May - 07:39:46 10° NW 07:42:52 17° N 07:45:58 10° NE daylight
26 May - 09:22:32 10° NW 09:26:19 24° NNE 09:30:06 10° ENE daylight
26 May - 11:04:22 10° NW 11:09:00 84° NE 11:13:37 10° SE visible
26 May - 12:48:00 10° W 12:50:42 15° SW 12:53:23 10° SSW visible
27 May - 02:57:23 10° S 03:01:13 24° SE 03:05:01 10° ENE daylight
27 May - 04:38:29 10° WSW 04:43:09 59° NNW 04:47:47 10° NE daylight
27 May - 06:22:29 10° WNW 06:26:03 21° NNW 06:29:37 10° NE daylight
27 May - 08:06:20 10° NW 08:09:34 18° N 08:12:46 10° NE daylight
27 May - 09:48:23 10° NW 09:52:44 39° NNE 09:57:03 10° E daylight
27 May - 11:30:36 10° WNW 11:34:56 41° SW 11:39:16 10° SSE visible
28 May - 03:22:22 10° SW 03:27:01 58° SE 03:31:39 10° ENE daylight
28 May - 05:05:10 10° W 05:09:26 32° NNW 05:13:38 10° NE daylight
28 May - 06:49:34 10° NW 06:52:43 17° N 06:55:51 10° NE daylight
28 May - 08:32:27 10° NW 08:36:11 23° NNE 08:39:54 10° ENE daylight
28 May - 10:14:17 10° NW 10:18:56 78° NE 10:23:32 10° ESE visible
28 May - 11:57:41 10° W 12:00:39 17° SW 12:03:37 10° S visible
29 May - 02:07:29 10° S 02:11:10 22° SE 02:14:49 10° E daylight
29 May - 03:48:20 10° WSW 03:53:02 64° NNW 03:57:43 10° NE daylight
29 May - 05:32:16 10° WNW 05:35:55 22° NNW 05:39:32 10° NE daylight
29 May - 07:16:12 10° NW 07:19:25 18° N 07:22:36 10° NE daylight
29 May - 08:58:18 10° NW 09:02:38 36° NNE 09:06:54 10° E daylight
29 May - 10:40:28 10° WNW 10:44:54 45° SW 10:49:17 10° SSE visible
30 May - 02:32:19 10° SW 02:36:56 53° SE 02:41:32 10° ENE daylight
30 May - 04:14:58 10° W 04:19:18 34° NNW 04:23:35 10° NE daylight
30 May - 05:59:22 10° NW 06:02:34 18° N 06:05:44 10° NE daylight
30 May - 07:42:21 10° NW 07:46:03 23° NNE 07:49:43 10° ENE daylight
30 May - 09:24:12 10° NW 09:28:50 72° NE 09:33:27 10° ESE daylight
30 May - 11:07:24 10° W 11:10:37 19° SW 11:13:50 10° S visible
31 May - 01:17:36 10° S 01:21:06 20° SE 01:24:35 10° E daylight
31 May - 02:58:12 10° WSW 03:02:56 70° NW 03:07:39 10° NE daylight
31 May - 04:42:02 10° WNW 04:45:46 22° NNW 04:49:29 10° NE daylight
31 May - 06:26:04 10° NW 06:29:16 18° N 06:32:26 10° NE daylight
31 May - 08:08:14 10° NW 08:12:30 34° NNE 08:16:44 10° E daylight
31 May - 09:50:20 10° WNW 09:54:49 50° SW 09:59:17 10° SSE daylight
01 Jun - 01:42:16 10° SSW 01:46:52 48° SE 01:51:25 10° ENE daylight
01 Jun - 03:24:47 10° W 03:29:10 36° NNW 03:33:32 10° NE daylight
01 Jun - 05:09:09 10° NW 05:12:24 18° N 05:15:37 10° NE daylight
01 Jun - 06:52:15 10° NW 06:55:54 22° NNE 06:59:31 10° ENE daylight
01 Jun - 08:34:07 10° NW 08:38:45 66° NNE 08:43:20 10° ESE daylight
01 Jun - 10:17:08 10° W 10:20:35 21° SW 10:24:00 10° S visible
02 Jun - 00:27:45 10° S 00:31:03 19° SE 00:34:20 10° E daylight
02 Jun - 02:08:04 10° WSW 02:12:50 75° NW 02:17:35 10° NE daylight
02 Jun - 03:51:48 10° WNW 03:55:37 23° NNW 03:59:25 10° NE daylight
02 Jun - 05:35:55 10° NW 05:39:06 18° N 05:42:16 10° NE daylight
02 Jun - 07:18:09 10° NW 07:22:23 33° NNE 07:26:34 10° E daylight
02 Jun - 09:00:13 10° WNW 09:04:45 55° SW 09:09:16 10° SE daylight
03 Jun - 00:52:15 10° SSW 00:56:47 44° SE 01:01:18 10° ENE daylight
03 Jun - 02:34:35 10° W 02:39:03 38° NNW 02:43:28 10° NE daylight
03 Jun - 04:18:56 10° NW 04:22:14 18° N 04:25:31 10° NE daylight
03 Jun - 06:02:09 10° NW 06:05:46 21° NNE 06:09:20 10° ENE daylight
03 Jun - 07:44:02 10° NW 07:48:40 61° NNE 07:53:15 10° ESE daylight
03 Jun - 09:26:54 10° W 09:30:32 23° SW 09:34:09 10° S daylight
03 Jun - 23:37:56 10° S 23:40:59 17° SE 23:44:03 10° E daylight
04 Jun - 01:17:57 10° SW 01:22:44 81° NW 01:27:30 10° NE daylight
04 Jun - 03:01:35 10° WNW 03:05:28 24° NNW 03:09:21 10° NE daylight
04 Jun - 04:45:45 10° NW 04:48:56 18° N 04:52:06 10° NE daylight
04 Jun - 06:28:04 10° NW 06:32:16 31° NNE 06:36:24 10° E daylight
04 Jun - 08:10:05 10° WNW 08:14:42 61° SW 08:19:14 10° SE daylight
